Regional Weather Roundup
Issued by NWS

Home | Current Version | Previous Version | Text Only | Print | Product List | Glossary Off
Versions: 1 2 3 4 5 6 7 8 9 10 11 12 13 14 15 16 17 18 19 20 21 22 23 24 25 26 27 28 29 30 31 32 33 34 35 36 37 38 39 40 41 42 43 44 45 46 47 48 49 50

000
ASUS43 KDMX 122303
RWRIA

WEATHER ROUNDUP FOR IOWA
NATIONAL WEATHER SERVICE DES MOINES IA
500 PM CST FRI FEB 12 2016

NOTE: "FAIR" INDICATES FEW OR NO CLOUDS BELOW 12,000 FEET WITH NO
SIGNIFICANT WEATHER AND/OR OBSTRUCTIONS TO VISIBILITY.

* - THESE STATIONS ARE NOT NWS STATIONS...THUS NOT UNDER NWS
QUALITY CONTROL.  THEY ALSO DO NOT REPORT WEATHER SUCH
AS PRECIPITATION OR FOG.

IAZ001>003-012>014-020>022-031>034-043>046-130000-
   NORTHWEST IOWA

CITY           SKY/WX    TMP DP  RH WIND       PRES   REMARKS
CARROLL *      CLEAR     12   3  67 N17G23    30.54R WCI  -5
CHEROKEE *     PTCLDY    10   0  61 N10       30.56R WCI  -3
DENISON *      CLEAR     12   3  67 N9G17     30.54R WCI   0
LE MARS *      CLOUDY    12   3  67 N8G15     30.60R WCI   1
ORANGE CITY *  CLOUDY     9   1  72 N8        30.56R WCI  -4
SHELDON *      CLOUDY     7  -2  66 N13G18    30.55R WCI  -9
SIOUX CITY     CLEAR     15   3  59 NW15      30.59R WCI   0
SPENCER        CLEAR      7  -3  64 N18       30.55R WCI -12
STORM LAKE *   CLEAR      9   0  66 NW14      30.53R WCI  -8
$$

IAZ055>058-069>071-079>083-090>094-130000-
   SOUTHWEST IOWA

CITY           SKY/WX    TMP DP  RH WIND       PRES   REMARKS
ATLANTIC *     CLEAR     14   0  52 N15G22    30.55R WCI  -1
AUDUBON *      CLEAR     12   3  67 NW13      30.53R WCI  -3
CLARINDA *     CLEAR     21   9  58 N16       30.57R WCI   7
COUNCIL BLFS * PTCLDY    18   7  62 N14       30.55R WCI   4
CRESTON *      PTCLDY    16   5  62 NW17G23   30.52R WCI   0
HARLAN  *      PTCLDY    14   5  67 N12       30.59R WCI   0
LAMONI         CLEAR     19   0  43 N15       30.50R WCI   5
RED OAK *      CLEAR     18   5  57 N16G22    30.57R WCI   3
SHENANDOAH *   CLEAR     21   7  53 N15       30.57R WCI   8
$$

IAZ047>049-059>061-072>074-084-130000-
   CENTRAL IOWA

CITY           SKY/WX    TMP DP  RH WIND       PRES   REMARKS
AMES           CLEAR     12   2  64 NW21G30   30.52R WCI  -7
ANKENY *       CLEAR     16   3  57 NW15      30.52R WCI   1
BOONE *        CLEAR     10   1  67 N16       30.50R WCI  -7
CHARITON *     CLEAR     16   1  53 NW14G22   30.49R WCI   1
DES MOINES     PTCLDY    15   0  51 NW15      30.52R WCI   0
GRINNELL*      PTCLDY    14   5  67 NW22      30.47R WCI  -4
KNOXVILLE *    CLEAR     16   0  48 N21       30.48R WCI  -2
MARSHALLTOWN   CLEAR     12   2  64 NW23      30.48R WCI  -7
NEWTON *       FLURRIES  14   1  57 NW23G30   30.49R WCI  -5
PELLA *        CLEAR     16   4  57 NW17G23   30.51R WCI   0
$$

IAZ004>006-015-016-023>025-035-036-130000-
   NORTH CENTRAL IOWA

CITY           SKY/WX    TMP DP  RH WIND       PRES   REMARKS
ALGONA *       MOCLDY     9   1  72 N16G25    30.52R WCI  -9
CLARION *      MOCLDY     9   0  66 NW16G24   30.51R WCI  -9
ESTHERVILLE    PTCLDY     5  -1  76 NW21      30.53R WCI -16
FORT DODGE *   PTCLDY    10  -2  56 NW13G20   30.54R WCI  -5
MASON CITY     CLEAR      8  -2  63 NW21      30.49R WCI -12
FOREST CITY *    N/A     10   0  61 NW20G26   30.49R WCI  -8
WEBSTER CITY * PTCLDY    10   1  67 N20       30.50R WCI  -8
IOWA FALLS *     N/A     12   3  67 NW22      30.49R WCI  -7
$$

IAZ007>011-017>019-026>030-037>042-050>054-066-130000-
   NORTHEAST IOWA

CITY           SKY/WX    TMP DP  RH WIND       PRES   REMARKS
CEDAR RAPIDS   CLEAR     14   1  56 NW24      30.42R WCI  -5
CHARLES CITY * CLEAR     10  -4  52 NW21G29   30.45R WCI  -9
CLINTON *      CLEAR     17   4  56 NW20G30   30.36R WCI   1
DECORAH *      CLEAR     10  -8  44 N15G24    30.39R WCI  -6
DUBUQUE        CLEAR     13  -2  51 NW21      30.34R WCI  -5
MONTICELLO *   CLEAR     14   0  52 NW20G31   30.40R WCI  -3
OELWEIN *      CLEAR     10   0  61 NW24      30.43R WCI -10
WATERLOO       CLEAR     11  -3  53 NW23G31   30.46R WCI  -9
$$

IAZ064-065-067-068-078-130000-
   EAST CENTRAL IOWA

CITY           SKY/WX    TMP DP  RH WIND       PRES   REMARKS
DAVENPORT      CLEAR     16   1  51 NW18G35   30.37R WCI   0
IOWA CITY      CLEAR     17   2  51 NW23G33   30.45R WCI  -1
MT. PLEASANT * CLEAR     22   4  46 NW17G23   30.43R WCI   8
MUSCATINE *    CLEAR     19   0  42 NW21G30   30.43R WCI   3
QUAD CITIES    CLEAR     19   0  43 NW20G29   30.38R WCI   3
$$

IAZ062-063-075>077-085>089-095>099-130000-
   SOUTHEAST IOWA

CITY           SKY/WX    TMP DP  RH WIND       PRES   REMARKS
BURLINGTON     CLEAR     21   3  45 NW13G28   30.40R WCI   9
FAIRFIELD *    CLEAR     18   3  53 NW22      30.45R WCI   0
FORT MADISON * CLEAR     21   5  49 NW15G25   30.42R WCI   8
KEOKUK *       CLEAR     23   5  46 NW16G24   30.43R WCI  10
OSKALOOSA *      N/A     16   5  62 NW18G31   30.47R WCI  -1
OTTUMWA        CLEAR     16   3  56 NW22G29   30.47R WCI  -2
WASHINGTON *   CLEAR     18   1  49 NW21G31   30.45R WCI   1
$$

ABBREVIATIONS USED IN REMARKS
   TC - TEMPERATURES IN CELSIUS
  WCI - WIND CHILL INDEX
   HX - HEAT INDEX
  VSB - VISIBILITY
$$




USA.gov is the U.S. government's official web portal to all federal, state and local government web resources and services.